User: anonymous   Login
Location: Unspecified
(0.0000°N, 0.0000°E)
Time: 08:12:00
(UTC+00:00)
Language:

CBERS 2B - Orbit

View from above orbital plane
View from above orbital plane
View from above satellite
View from above satellite

Ground track
Ground track

The orbit data is extracted from the following two-line orbital elements,

1 32062U 07042A   19345.74939920  .00000187  00000-0  72374-4 0  9994
2 32062  98.0978 341.9603 0031227 317.2637  42.6169 14.39727708642239
Epoch (UTC): 11 December 2019 17:59:08
Eccentricity: 0.0031227
inclination: 98.0978°
perigee height: 737 km
apogee height: 781 km
right ascension of ascending node: 341.9603°
argument of perigee: 317.2637°
revolutions per day: 14.39727708
mean anomaly at epoch: 42.6169°
orbit number at epoch: 64223

The dashed part of the orbit path shows where the satellite is in the earth's shadow,  

DLR